CW2664 Weather Reports


time (UTC)temp
C
wind
direction
speed
KPH
gust
KPH
rain 1hr
cm
rain 24hr
cm
rain mn
cm
humidity
%
barometer
mb
20260507134649 10 266 3.2 6.4 0.00 0.00 0.00 81 1020.3
20260507132849 10 304 3.2 8.0 0.00 0.00 0.00 81 1020.3
20260507131950 10 303 6.4 11.3 0.00 0.00 0.00 81 1020.2
20260507131049 10 302 6.4 11.3 0.00 0.00 0.00 81 1020.3
20260507130149 10 304 8.0 12.9 0.00 0.00 0.00 81 1020.4
20260507125249 10 294 8.0 12.9 0.00 0.00 0.00 81 1020.3
20260507124349 10 306 8.0 14.5 0.00 0.00 0.00 81 1020.3
20260507122549 10 299 4.8 12.9 0.00 0.00 0.00 81 1020.3
20260507121649 10 306 6.4 12.9 0.00 0.00 0.00 81 1020.4
20260507120749 10 303 6.4 12.9 0.00 0.00 0.00 81 1020.4
20260507115850 10 292 6.4 9.7 0.00 0.00 0.00 81 1020.4
20260507114949 10 293 6.4 12.9 0.00 0.00 0.00 81 1020.4
20260507114050 10 292 8.0 12.9 0.00 0.00 0.00 81 1020.4
20260507113151 10 292 6.4 14.5 0.00 0.00 0.00 81 1020.4
20260507112249 10 300 6.4 9.7 0.00 0.00 0.00 81 1020.4
20260507111349 11 285 6.4 9.7 0.00 0.00 0.00 81 1020.4
20260507110449 11 285 4.8 12.9 0.00 0.00 0.00 82 1020.5
20260507105549 11 288 6.4 11.3 0.00 0.00 0.00 81 1020.5
20260507103749 11 286 4.8 8.0 0.00 0.00 0.00 82 1020.7
20260507102849 11 297 4.8 11.3 0.00 0.00 0.00 82 1020.7
20260507101049 11 309 6.4 9.7 0.00 0.00 0.00 83 1020.8
20260507100149 11 304 6.4 12.9 0.00 0.00 0.00 82 1020.8
20260507095249 11 291 6.4 9.7 0.00 0.00 0.00 82 1020.8
20260507094349 11 290 6.4 12.9 0.00 0.00 0.00 82 1020.9
20260507093449 11 287 6.4 11.3 0.00 0.00 0.00 82 1020.9
20260507092549 11 297 6.4 14.5 0.00 0.00 0.00 82 1021.0
20260507091649 11 313 6.4 14.5 0.00 0.00 0.00 81 1021.0
20260507090749 11 306 6.4 12.9 0.00 0.00 0.00 81 1021.1
20260507085849 11 290 6.4 11.3 0.00 0.00 0.00 81 1021.1
20260507084949 11 294 8.0 14.5 0.00 0.00 0.00 81 1021.1
20260507084049 11 297 8.0 16.1 0.00 0.00 0.00 81 1021.1
20260507083149 11 310 6.4 11.3 0.00 0.00 0.00 82 1021.2
20260507082249 11 296 6.4 12.9 0.00 0.00 0.00 82 1021.2
20260507080449 11 294 6.4 12.9 0.00 0.00 0.00 82 1021.1
20260507075549 11 303 4.8 12.9 0.00 0.00 0.00 82 1021.2
20260507074649 12 292 4.8 11.3 0.00 0.00 0.00 82 1021.1
20260507073749 11 286 6.4 12.9 0.00 0.00 0.00 82 1021.0
20260507072849 12 290 6.4 11.3 0.00 0.00 0.00 81 1021.0
20260507071949 12 307 4.8 9.7 0.00 0.00 0.00 81 1020.9
20260507065249 12 302 6.4 11.3 0.00 0.00 0.00 81 1021.0
20260507064349 12 290 8.0 14.5 0.00 0.00 0.00 81 1021.0
20260507063449 12 302 6.4 12.9 0.00 0.00 0.00 81 1021.0
20260507062550 12 292 8.0 14.5 0.00 0.00 0.00 81 1021.0
20260507061649 12 284 6.4 11.3 0.00 0.00 0.00 81 1020.9
20260507055849 12 296 6.4 12.9 0.00 0.00 0.00 81 1020.9
20260507054950 12 307 9.7 17.7 0.00 0.00 0.00 80 1020.8
20260507053149 12 301 8.0 19.3 0.00 0.00 0.00 80 1020.7
20260507052249 12 300 9.7 16.1 0.00 0.00 0.00 80 1020.7
20260507050449 13 291 9.7 16.1 0.00 0.00 0.00 80 1020.8
20260507045549 13 298 9.7 16.1 0.00 0.00 0.00 80 1020.8
20260507044649 13 311 11.3 25.7 0.00 0.00 0.00 80 1020.7
20260507043749 13 323 12.9 24.1 0.00 0.00 0.00 80 1020.7
20260507042849 13 327 14.5 24.1 0.00 0.00 0.00 80 1020.6
20260507041949 13 332 12.9 22.5 0.00 0.00 0.00 79 1020.5
20260507041049 13 326 12.9 24.1 0.00 0.00 0.00 79 1020.5
20260507040149 14 325 12.9 24.1 0.00 0.00 0.00 79 1020.3
20260507035250 14 323 9.7 17.7 0.00 0.00 0.00 79 1020.2
20260507034349 14 322 12.9 25.7 0.00 0.00 0.00 79 1020.0
20260507033449 14 329 14.5 25.7 0.00 0.00 0.00 79 1019.9
20260507032549 15 329 12.9 22.5 0.00 0.00 0.00 79 1019.8
20260507031649 15 325 12.9 20.9 0.00 0.00 0.00 79 1019.7
20260507030749 15 319 11.3 19.3 0.00 0.00 0.00 79 1019.6
20260507025849 15 323 9.7 17.7 0.00 0.00 0.00 78 1019.4
20260507024949 15 322 9.7 14.5 0.00 0.00 0.00 78 1019.4
20260507024049 16 324 8.0 16.1 0.00 0.00 0.00 77 1019.4
20260507022249 16 325 11.3 19.3 0.00 0.00 0.00 76 1019.3
20260507020450 16 329 14.5 24.1 0.00 0.00 0.00 75 1019.4
20260507015549 16 328 12.9 19.3 0.00 0.00 0.00 75 1019.5
20260507014649 16 324 14.5 20.9 0.00 0.00 0.00 75 1019.6
20260507013749 17 328 9.7 20.9 0.00 0.00 0.00 75 1019.6
20260507012849 17 329 8.0 12.9 0.00 0.00 0.00 76 1019.5
20260507011949 17 324 8.0 12.9 0.00 0.00 0.00 76 1019.5
20260507010149 17 324 8.0 12.9 0.00 0.00 0.00 76 1019.6
20260507004349 17 321 8.0 12.9 0.00 0.00 0.00 74 1019.6
20260507003449 17 335 8.0 11.3 0.00 0.00 0.00 74 1019.6
20260507001649 17 321 8.0 12.9 0.00 0.00 0.00 73 1019.6
20260507000749 17 332 6.4 11.3 0.00 0.00 0.00 72 1019.6
20260506234949 17 333 8.0 12.9 0.00 0.00 0.00 71 1019.6
20260506234049 18 3 6.4 11.3 0.00 0.00 0.00 70 1019.6
20260506233149 18 357 6.4 11.3 0.00 0.00 0.00 70 1019.6
20260506232249 17 15 8.0 11.3 0.00 0.00 0.00 72 1019.7
20260506230449 17 21 4.8 11.3 0.00 0.00 0.00 72 1019.9
20260506225549 18 328 6.4 11.3 0.00 0.00 0.00 71 1019.9
20260506222849 17 322 4.8 11.3 0.00 0.00 0.00 74 1020.2
20260506221949 17 333 6.4 9.7 0.00 0.00 0.00 73 1020.2
20260506221049 17 351 4.8 9.7 0.00 0.00 0.00 72 1020.2
20260506220149 17 329 4.8 9.7 0.00 0.00 0.00 73 1020.2
20260506215249 18 311 4.8 14.5 0.00 0.00 0.00 72 1020.2
20260506214349 18 292 3.2 8.0 0.00 0.00 0.00 75 1020.2
20260506213449 17 320 4.8 11.3 0.00 0.00 0.00 77 1020.4
20260506210749 16 9 8.0 12.9 0.00 0.00 0.00 79 1020.7
20260506204949 16 7 4.8 9.7 0.00 0.00 0.00 78 1020.5
20260506204049 16 15 3.2 6.4 0.00 0.00 0.00 77 1020.4
20260506202249 16 265 3.2 8.0 0.00 0.00 0.00 80 1020.7
20260506201349 16 315 4.8 9.7 0.00 0.00 0.00 80 1020.7
20260506200449 15 317 6.4 12.9 0.00 0.00 0.00 81 1020.7
20260506195549 15 334 4.8 11.3 0.00 0.00 0.00 80 1020.8
20260506194649 15 331 6.4 9.7 0.00 0.00 0.00 81 1021.0
20260506193748 15 316 6.4 11.3 0.00 0.00 0.00 80 1021.0
20260506191949 16 229 6.4 11.3 0.00 0.00 0.00 80 1020.8
20260506191049 16 228 4.8 9.7 0.00 0.00 0.00 80 1020.8
20260506190149 15 232 6.4 12.9 0.00 0.00 0.00 80 1020.8
20260506185249 15 245 4.8 12.9 0.00 0.00 0.00 81 1020.8
20260506184349 15 249 4.8 8.0 0.00 0.00 0.00 81 1020.7
20260506183449 15 305 3.2 9.7 0.00 0.00 0.00 82 1020.7
20260506182549 15 310 3.2 8.0 0.00 0.00 0.00 83 1020.8
20260506181649 14 329 4.8 9.7 0.00 0.00 0.00 83 1020.8
20260506180750 14 321 4.8 8.0 0.00 0.00 0.00 82 1020.9
20260506175849 14 277 4.8 9.7 0.00 0.00 0.00 82 1020.8
20260506174949 14 277 4.8 9.7 0.00 0.00 0.00 83 1020.7
20260506174048 14 254 1.6 4.8 0.00 0.00 0.00 85 1020.5
20260506173148 13 331 3.2 8.0 0.00 0.00 0.00 86 1020.6
20260506172248 13 319 4.8 9.7 0.00 0.00 0.00 86 1020.5
20260506171348 13 328 6.4 9.7 0.00 0.00 0.00 86 1020.6
20260506164648 13 334 8.0 14.5 0.00 0.00 0.00 85 1020.5
20260506163748 13 324 6.4 9.7 0.00 0.00 0.00 85 1020.3
20260506162849 14 253 3.2 8.0 0.00 0.00 0.00 85 1020.2
20260506161950 14 281 3.2 6.4 0.00 0.00 0.00 85 1020.2
20260506161049 13 197 3.2 8.0 0.00 0.00 0.00 87 1020.0
20260506154349 12 310 3.2 8.0 0.00 0.00 0.00 89 1020.3
20260506153449 12 328 6.4 12.9 0.00 0.00 0.00 88 1020.5
20260506152549 12 333 8.0 12.9 0.00 0.00 0.00 89 1020.6
20260506151648 12 327 8.0 12.9 0.00 0.00 0.00 88 1020.4
20260506150748 12 332 8.0 14.5 0.00 0.00 0.00 88 1020.3
20260506145849 12 329 9.7 14.5 0.00 0.00 0.00 88 1020.2
20260506144948 12 331 8.0 14.5 0.00 0.00 0.00 87 1020.2
20260506144048 13 330 6.4 11.3 0.00 0.00 0.00 87 1019.8
20260506143149 13 309 3.2 6.4 0.00 0.00 0.00 88 1019.7
20260506142248 13 310 3.2 4.8 0.00 0.00 0.00 87 1019.6
20260506140448 12 264 3.2 4.8 0.00 0.00 0.00 88 1019.7
20260506135548 12 243 3.2 6.4 0.00 0.00 0.00 88 1019.6